Change the Weather History Date:

Friday, March 29, 2013

  Actual Average Record
Temperature  
Mean Temperature 46 °F -  
Max Temperature 50 °F 64 °F 81 °F (1968)
Min Temperature 41 °F 44 °F 24 °F (1955)
Degree Days  
Heating Degree Days 20    
Moisture  
Dew Point 41 °F    
Average Humidity 83    
Maximum Humidity 100    
Minimum Humidity 50    
Precipitation  
Precipitation 0.02 in - - ()
Sea Level Pressure  
Sea Level Pressure 30.27 in    
Wind  
Wind Speed 4 mph (SSE)    
Max Wind Speed 12 mph    
Max Gust Speed -    
Visibility 8 miles    
Events Rain    
Averages and records for this station are not official NWS values.
T = Trace of Precipitation, MM = Missing Value Source: NWS Daily Summary

Daily Weather History Graph

Daily Weather History Graph

Search for Another Location

Airport or City:

Trip Planner

Search our weather history database for the weather conditions in past years. The results will help you decide how hot, cold, wet, or windy it might be!

Date:

Astronomy

Mar. 29, 2013 Rise Set
Actual Time 6:38 AM CDT 7:09 PM CDT
Civil Twilight 6:11 AM CDT 7:35 PM CDT
Nautical Twilight 5:40 AM CDT 8:06 PM CDT
Astronomical Twilight 5:09 AM CDT 8:38 PM CDT
Moon 10:04 PM CDT (3/29) 7:50 AM CDT (3/29)
Length of Visible Light 13h 23m
Length of Day
12h 30m
Waning Gibbous, 93% of the Moon is Illuminated
Mar 29
Waning Gibbous
Apr 2
Last Quarter
Apr 10
New
Apr 18
First Quarter
Apr 25
Full

Hourly Weather History & Observations

Time (CDT) Temp. Windchill Dew Point Humidity Pressure Visibility Wind Dir Wind Speed Gust Speed Precip Events Conditions
12:56 AM 43.9 °F - 34.0 °F 68% 30.31 in 10.0 mi Calm Calm - N/A   Mostly Cloudy
1:56 AM 45.9 °F 42.9 °F 28.0 °F 50% 30.30 in 10.0 mi East 5.8 mph - N/A   Mostly Cloudy
2:56 AM 45.0 °F 43.5 °F 30.0 °F 56% 30.30 in 10.0 mi ESE 3.5 mph - N/A   Mostly Cloudy
3:56 AM 43.9 °F 42.3 °F 32.0 °F 63% 30.30 in 10.0 mi SE 3.5 mph - 0.00 in Rain Light Rain
4:56 AM 43.0 °F 40.3 °F 34.0 °F 71% 30.29 in 10.0 mi South 4.6 mph - 0.00 in Rain Light Rain
5:56 AM 43.9 °F 42.3 °F 32.9 °F 65% 30.29 in 10.0 mi SE 3.5 mph - 0.00 in   Overcast
6:56 AM 43.9 °F 40.5 °F 34.0 °F 68% 30.30 in 10.0 mi South 5.8 mph - 0.00 in   Overcast
7:32 AM 42.8 °F 38.6 °F 37.4 °F 81% 30.30 in 6.0 mi South 6.9 mph - 0.00 in Rain Light Rain
7:41 AM 42.8 °F 38.6 °F 39.2 °F 87% 30.31 in 3.0 mi South 6.9 mph - 0.00 in Rain Light Rain
7:56 AM 41.9 °F 37.5 °F 38.8 °F 89% 30.32 in 3.0 mi South 6.9 mph - 0.00 in Rain Light Rain
8:08 AM 42.8 °F 40.1 °F 39.2 °F 87% 30.31 in 3.0 mi South 4.6 mph - 0.00 in Rain Light Rain
8:56 AM 43.0 °F 38.2 °F 39.9 °F 89% 30.31 in 6.0 mi SSE 8.1 mph - 0.02 in Rain Light Rain
9:56 AM 43.9 °F 38.3 °F 41.0 °F 90% 30.30 in 7.0 mi SSE 10.4 mph - 0.00 in   Overcast
10:56 AM 45.9 °F 41.7 °F 43.9 °F 93% 30.30 in 7.0 mi South 8.1 mph - 0.00 in   Overcast
11:56 AM 48.9 °F - 45.0 °F 86% 30.30 in 10.0 mi South 11.5 mph - N/A   Overcast
12:56 PM 48.9 °F - 45.0 °F 86% 30.28 in 10.0 mi SSE 10.4 mph - N/A   Overcast
1:56 PM 48.9 °F - 45.0 °F 86% 30.27 in 7.0 mi SSE 11.5 mph - N/A   Overcast
2:56 PM 47.8 °F - 45.9 °F 93% 30.25 in 4.0 mi SE 8.1 mph - N/A   Overcast
3:56 PM 48.9 °F - 45.0 °F 86% 30.24 in 7.0 mi SSE 5.8 mph - N/A   Overcast
4:56 PM 50.0 °F - 45.0 °F 83% 30.23 in 7.0 mi Calm Calm - N/A   Overcast
5:56 PM 48.9 °F - 45.0 °F 86% 30.23 in 7.0 mi Calm Calm - N/A   Overcast
6:56 PM 48.9 °F - 45.0 °F 86% 30.23 in 7.0 mi SE 4.6 mph - N/A   Overcast
7:56 PM 47.8 °F - 45.0 °F 90% 30.24 in 10.0 mi SE 3.5 mph - N/A   Overcast
8:56 PM 47.8 °F - 45.0 °F 90% 30.25 in 10.0 mi Calm Calm - N/A   Mostly Cloudy
9:30 PM 46.4 °F - 44.6 °F 93% 30.24 in 10.0 mi Calm Calm - N/A   Overcast
9:38 PM 48.2 °F - 44.6 °F 87% 30.25 in 10.0 mi Calm Calm - N/A   Overcast
9:56 PM 46.9 °F - 45.0 °F 93% 30.25 in 10.0 mi Calm Calm - N/A   Mostly Cloudy
10:27 PM 46.4 °F - 44.6 °F 93% 30.25 in 9.0 mi Calm Calm - N/A   Mostly Cloudy
10:56 PM 45.9 °F - 43.9 °F 93% 30.25 in 8.0 mi Calm Calm - N/A   Overcast
11:30 PM 44.6 °F 43.1 °F 44.6 °F 100% 30.24 in 3.0 mi NE 3.5 mph - N/A   Scattered Clouds
11:56 PM 43.9 °F 41.3 °F 43.9 °F 100% 30.24 in 5.0 mi ENE 4.6 mph - N/A   Clear